[[{"header":{"parameterUnit":"m.s-1","parameterCategory":1,"la1":30.2991,"la2":30.254,"lo1":-89.0895,"lo2":-89.0444,"dy":0.0017,"dx":0.0017,"nx":28,"ny":28,"refTime":"2023-11-17T09:00:00:Z","depth":0,"parameterNumber":2,"parameterNumberName":"U-component_of_WINDS"},"data":[0,0,0,0,0,0,0,0,0,0,0,0,0,0,0,0,0,0,0,0,0,0,0,0,0,0,0,0,0,0,0,0,0,0,0,0,0,0,0,0,0,0,0,0,0,0,0,0,0,0,0,0,0,0,0,0,0,0,1.3022,1.3022,0,1.2997,1.2997,1.2997,1.2955,1.2954,1.2953,1.2952,1.2926,1.2926,1.2926,0,0,0,0,0,0,0,0,0,0,0,0,0,1.3033,1.3033,1.3022,1.3022,1.3021,1.2997,1.2997,1.2997,1.2955,1.2954,1.2953,1.2952,1.2926,1.2926,1.2926,0,0,0,0,0,0,0,0,0,0,0,0,0,1.302,1.3033,1.3022,1.2998,1.2995,1.2997,1.2997,1.2997,1.2955,1.2954,1.2953,1.2952,1.2926,1.2926,1.2926,1.295,0,0,1.2926,1.2926,0,0,0,0,0,0,0,0,1.3021,1.302,1.3001,1.2999,1.2996,1.2978,1.2991,1.2981,1.2955,1.297,1.2952,1.2951,1.2944,1.2943,1.2941,1.2949,1.2948,1.2926,1.2926,1.2926,1.2926,0,0,0,0,0,0,0,1.3022,1.3021,1.3012,1.3001,1.2998,1.2988,1.2985,1.2989,1.2964,1.2969,1.2966,1.2963,1.2943,1.2941,1.294,1.2947,1.2926,1.2926,1.2926,1.2926,1.2977,1.2978,0,0,0,0,0,0,1.3027,1.3022,1.3013,1.3011,1.3006,1.2989,1.2985,1.2985,1.2964,1.296,1.2965,1.2962,1.2941,1.294,1.2939,1.2967,1.2926,1.2926,1.2927,1.2976,1.2977,1.2979,0,0,0,0,0,0,1.3027,1.3026,1.3014,1.3016,1.3013,1.299,1.299,1.2985,1.2983,1.2961,1.2956,1.2967,1.294,1.2939,1.2948,1.2966,1.2927,1.2927,1.2974,1.2976,1.2978,1.3024,0,0,0,0,0,0,1.3027,1.3027,1.3035,1.3016,1.3014,1.3024,1.2991,1.2986,1.2984,1.298,1.2962,1.2958,1.2939,1.2949,1.2948,1.2965,1.2927,1.2973,1.2975,1.2977,1.3021,1.3027,1.3032,0,0,0,0,0,1.3028,1.3048,1.3036,1.3035,1.3024,1.3025,1.3023,1.3002,1.2985,1.2994,1.298,1.2958,1.2964,1.295,1.2949,1.2966,1.2971,1.2974,1.2977,1.3018,1.3026,1.3032,0,0,0,0,0,0,1.3068,1.3045,1.3031,1.3045,1.3038,1.3018,1.3028,1.301,1.3007,1.3003,1.2976,1.2973,1.2986,1.2977,1.2962,1.299,1.2964,1.2967,1.2995,1.3003,1.3009,1.3011,1.2927,0,0,0,0,0,1.3079,1.3082,1.3061,1.3076,1.3073,1.3051,1.3051,1.3035,1.3026,1.3022,1.3009,1.3,1.3001,1.3001,1.2999,1.3019,1.3016,1.3031,1.3037,1.3042,1.3045,1.3057,1.3064,1.2989,1.2988,1.2988,0,0,1.31,1.3088,1.3091,1.3084,1.3076,1.308,1.3049,1.3054,1.3057,1.3023,1.3032,1.3022,1.3011,1.3027,1.3033,1.3019,1.3065,1.3045,1.305,1.305,1.3061,1.3068,1.3075,1.2991,1.299,1.299,0,0,1.3143,1.3133,1.3145,1.3139,1.3128,1.3114,1.3117,1.31,1.3093,1.3102,1.3077,1.3081,1.3081,1.3075,1.3072,1.3115,1.3096,1.3115,1.3147,1.3159,1.3165,1.317,1.3188,1.3194,1.3118,1.3118,1.3118,0,1.3171,1.3176,1.3154,1.3162,1.316,1.313,1.3144,1.3138,1.3127,1.3127,1.3112,1.3114,1.3104,1.3119,1.313,1.3128,1.3132,1.3117,1.3166,1.3171,1.3176,1.3192,1.3198,1.3121,1.3121,1.312,1.312,0,1.3213,1.3217,1.3229,1.3221,1.322,1.323,1.321,1.3212,1.3197,1.3185,1.3196,1.3184,1.3181,1.3183,1.3168,1.3197,1.319,1.3171,1.3145,1.3186,1.3201,1.3207,1.3125,1.3124,1.3123,1.3122,0,0,1.3278,1.3259,1.3264,1.3261,1.3248,1.3251,1.3261,1.3259,1.3263,1.3256,1.3265,1.3267,1.3251,1.3248,1.3232,1.3243,1.3281,1.3223,1.3222,1.3236,1.3315,1.333,1.3338,1.3268,1.3269,1.327,1.3317,0,1.3319,1.3335,1.3316,1.3336,1.3342,1.3315,1.3324,1.3318,1.3307,1.331,1.3298,1.3301,1.3278,1.3277,1.3286,1.3274,1.3297,1.327,1.3277,1.3278,1.3282,1.3345,1.336,1.3405,1.3322,1.3323,1.3324,0,1.3367,1.3366,1.3387,1.3376,1.3377,1.3385,1.3383,1.3386,1.3379,1.3371,1.3369,1.3351,1.3361,1.3336,1.335,1.3333,1.3335,1.333,1.3331,1.3332,1.3304,1.3349,1.3418,1.3426,1.3332,1.3332,1.3331,0,1.3416,1.3418,1.3432,1.343,1.3416,1.3423,1.3418,1.341,1.3411,1.3409,1.341,1.3409,1.3409,1.3409,1.3392,1.3375,1.341,1.3382,1.3405,1.3405,1.3413,1.3413,1.3486,1.3413,1.3412,1.3412,1.3412,0,1.3463,1.3478,1.3454,1.3463,1.3479,1.3458,1.3475,1.3466,1.346,1.3467,1.3444,1.3451,1.3427,1.3433,1.3419,1.3435,1.3434,1.3429,1.3425,1.3432,1.3433,1.3433,1.343,1.3414,1.3414,1.3413,1.3413,0,1.352,1.3504,1.3518,1.3505,1.3502,1.3515,1.3503,1.3511,1.35,1.351,1.3511,1.3494,1.3499,1.3482,1.3484,1.3475,1.3499,1.3489,1.3502,1.3499,1.3523,1.3522,1.3599,1.361,1.3529,1.3529,1.353,0,1.3552,1.3563,1.3551,1.3555,1.3551,1.3557,1.3559,1.3539,1.3542,1.3536,1.3545,1.3549,1.3551,1.3561,1.3549,1.3551,1.3543,1.357,1.3543,1.355,1.3546,1.3546,1.3548,1.3576,1.3577,1.3577,1.3578,0,1.3611,1.3604,1.3607,1.3608,1.3611,1.3611,1.3609,1.3614,1.3593,1.3597,1.3603,1.3605,1.3608,1.3613,1.3613,1.3608,1.3591,1.3587,1.3593,1.36,1.3607,1.3606,1.3519,1.3585,1.3584,1.3584,1.3584,1.3583,1.3657,1.3667,1.3662,1.3667,1.3664,1.3664,1.3671,1.3662,1.3667,1.3669,1.3657,1.3666,1.3661,1.366,1.3657,1.3664,1.3652,1.3659,1.3662,1.3664,1.367,1.3605,1.3664,1.3664,1.3664,1.3663,1.3663,0,1.3717,1.3713,1.3718,1.3718,1.3722,1.3706,1.3704,1.3709,1.3718,1.3715,1.3718,1.3726,1.3731,1.3721,1.3724,1.3733,1.3725,1.3735,1.3734,1.3734,1.3679,1.3675,1.3741,1.3741,1.3741,1.3741,1.3741,1.3741,1.3749,1.3766,1.3758,1.3773,1.3769,1.3778,1.3779,1.3779,1.3777,1.3788,1.3792,1.3785,1.378,1.3784,1.3789,1.3785,1.3789,1.3802,1.3796,1.3745,1.3737,1.373,1.3726,1.3802,1.3802,1.385,1.3851,1.3851]},{"header":{"parameterUnit":"m.s-1","parameterCategory":1,"la1":30.2991,"la2":30.254,"lo1":-89.0895,"lo2":-89.0444,"dy":0.0017,"dx":0.0017,"nx":28,"ny":28,"refTime":"2023-11-17T09:00:00:Z","depth":0,"parameterNumber":3,"parameterNumberName":"V-component_of_WINDS"},"data":[0,0,0,0,0,0,0,0,0,0,0,0,0,0,0,0,0,0,0,0,0,0,0,0,0,0,0,0,0,0,0,0,0,0,0,0,0,0,0,0,0,0,0,0,0,0,0,0,0,0,0,0,0,0,0,0,0,0,-2.5276,-2.5275,0,-2.5181,-2.518,-2.5179,-2.5161,-2.5162,-2.5163,-2.5164,-2.5062,-2.5059,-2.5055,0,0,0,0,0,0,0,0,0,0,0,0,0,-2.5441,-2.5438,-2.5276,-2.5275,-2.5274,-2.5181,-2.518,-2.5179,-2.5161,-2.5162,-2.5163,-2.5164,-2.5063,-2.5059,-2.5055,0,0,0,0,0,0,0,0,0,0,0,0,0,-2.536,-2.5437,-2.5277,-2.5254,-2.5251,-2.5182,-2.518,-2.5178,-2.5161,-2.5162,-2.5163,-2.5164,-2.5064,-2.5059,-2.5054,-2.4999,0,0,-2.5039,-2.5036,0,0,0,0,0,0,0,0,-2.5365,-2.5354,-2.5259,-2.5256,-2.5252,-2.5184,-2.5201,-2.5118,-2.5161,-2.5195,-2.5164,-2.5165,-2.5102,-2.5093,-2.5073,-2.4994,-2.499,-2.5038,-2.5035,-2.5033,-2.5031,0,0,0,0,0,0,0,-2.537,-2.5358,-2.5239,-2.5257,-2.5253,-2.5248,-2.5238,-2.5185,-2.5143,-2.5192,-2.5191,-2.518,-2.51,-2.5078,-2.507,-2.4989,-2.5038,-2.5034,-2.5031,-2.5029,-2.4862,-2.4861,0,0,0,0,0,0,-2.538,-2.5363,-2.5242,-2.5236,-2.5313,-2.5244,-2.5233,-2.5205,-2.5143,-2.5135,-2.5179,-2.5179,-2.5086,-2.5076,-2.5067,-2.4999,-2.5033,-2.5028,-2.5025,-2.4864,-2.4862,-2.4861,0,0,0,0,0,0,-2.5384,-2.537,-2.5245,-2.5299,-2.5283,-2.524,-2.5209,-2.5202,-2.518,-2.5133,-2.5125,-2.5164,-2.5087,-2.5074,-2.5017,-2.4995,-2.5026,-2.5021,-2.4865,-2.4863,-2.4861,-2.4862,0,0,0,0,0,0,-2.5389,-2.5371,-2.535,-2.5299,-2.528,-2.5197,-2.5208,-2.52,-2.5172,-2.5172,-2.5117,-2.511,-2.5087,-2.5025,-2.5012,-2.4988,-2.5017,-2.4867,-2.4864,-2.4862,-2.4863,-2.486,-2.4857,0,0,0,0,0,-2.5395,-2.5352,-2.5349,-2.5334,-2.5253,-2.5196,-2.5185,-2.5161,-2.517,-2.5148,-2.5119,-2.5111,-2.5,-2.5019,-2.5004,-2.4979,-2.4868,-2.4865,-2.4862,-2.4865,-2.4861,-2.4857,0,0,0,0,0,0,-2.5399,-2.5345,-2.534,-2.528,-2.5244,-2.5193,-2.5164,-2.5157,-2.5115,-2.5116,-2.5087,-2.5075,-2.502,-2.4994,-2.5016,-2.4924,-2.4935,-2.4929,-2.4942,-2.4937,-2.4934,-2.494,-2.5013,0,0,0,0,0,-2.5394,-2.5354,-2.5308,-2.526,-2.5242,-2.5207,-2.5181,-2.5166,-2.5126,-2.5109,-2.5075,-2.5036,-2.4992,-2.4964,-2.4921,-2.4861,-2.4849,-2.4837,-2.4833,-2.4831,-2.4825,-2.4793,-2.4787,-2.4851,-2.4851,-2.4851,0,0,-2.5381,-2.5347,-2.5322,-2.526,-2.5229,-2.5188,-2.5193,-2.5148,-2.5117,-2.5102,-2.5046,-2.5021,-2.4975,-2.4917,-2.4889,-2.4893,-2.4806,-2.4827,-2.4826,-2.4821,-2.4789,-2.4783,-2.4778,-2.4849,-2.4849,-2.485,0,0,-2.5336,-2.5307,-2.5263,-2.5234,-2.5189,-2.5166,-2.5156,-2.5108,-2.5091,-2.5036,-2.5024,-2.4987,-2.4912,-2.488,-2.4854,-2.4802,-2.4793,-2.4789,-2.4771,-2.474,-2.4735,-2.473,-2.4711,-2.4705,-2.4784,-2.4784,-2.4784,0,-2.5325,-2.5263,-2.5242,-2.5198,-2.5171,-2.5159,-2.5115,-2.5087,-2.5029,-2.5011,-2.5017,-2.4925,-2.4893,-2.4827,-2.4815,-2.4795,-2.4782,-2.4793,-2.4737,-2.4732,-2.4728,-2.4709,-2.4702,-2.4784,-2.4784,-2.4784,-2.4784,0,-2.5252,-2.521,-2.518,-2.5127,-2.5097,-2.5054,-2.5025,-2.4998,-2.4987,-2.4964,-2.4908,-2.4871,-2.4821,-2.4805,-2.4792,-2.4738,-2.4742,-2.4744,-2.4754,-2.4722,-2.4704,-2.4697,-2.4783,-2.4783,-2.4783,-2.4783,0,0,-2.5203,-2.5143,-2.5132,-2.5109,-2.506,-2.5026,-2.4983,-2.4936,-2.4913,-2.4875,-2.4838,-2.4777,-2.4779,-2.475,-2.4734,-2.4707,-2.4669,-2.4712,-2.471,-2.4704,-2.4607,-2.4605,-2.4597,-2.4664,-2.4663,-2.4662,-2.4611,0,-2.5152,-2.5075,-2.5056,-2.499,-2.4951,-2.4941,-2.4903,-2.487,-2.4848,-2.4812,-2.4788,-2.4745,-2.4751,-2.4734,-2.4707,-2.4679,-2.4648,-2.4683,-2.4628,-2.4627,-2.4638,-2.4588,-2.4585,-2.4538,-2.4604,-2.4602,-2.4602,0,-2.508,-2.5043,-2.4974,-2.4933,-2.4916,-2.4882,-2.4839,-2.4804,-2.4767,-2.4753,-2.4723,-2.4711,-2.4666,-2.4681,-2.4619,-2.4643,-2.462,-2.4604,-2.4601,-2.4593,-2.461,-2.4577,-2.4522,-2.4515,-2.459,-2.4591,-2.4592,0,-2.505,-2.4983,-2.4934,-2.4914,-2.4865,-2.4842,-2.4821,-2.4784,-2.4758,-2.4721,-2.4703,-2.4661,-2.4637,-2.4604,-2.4581,-2.4595,-2.4521,-2.4534,-2.4508,-2.4508,-2.449,-2.4491,-2.4429,-2.4479,-2.4479,-2.4479,-2.4479,0,-2.4993,-2.4951,-2.492,-2.4889,-2.4842,-2.4822,-2.4776,-2.4754,-2.4723,-2.4687,-2.4677,-2.4643,-2.4616,-2.458,-2.4562,-2.4513,-2.4503,-2.449,-2.4485,-2.449,-2.4491,-2.4472,-2.4474,-2.4477,-2.4478,-2.4478,-2.4478,0,-2.495,-2.4928,-2.4873,-2.4833,-2.4822,-2.4789,-2.4754,-2.4724,-2.4705,-2.466,-2.4649,-2.4617,-2.4574,-2.455,-2.4494,-2.4483,-2.4428,-2.4426,-2.4441,-2.4439,-2.4413,-2.4415,-2.4335,-2.4324,-2.4383,-2.4382,-2.4382,0,-2.4914,-2.4882,-2.4839,-2.4816,-2.4795,-2.4757,-2.4731,-2.4711,-2.4685,-2.4641,-2.4616,-2.4574,-2.4537,-2.4469,-2.4441,-2.4399,-2.4395,-2.437,-2.4388,-2.4394,-2.4393,-2.4395,-2.4391,-2.4366,-2.4365,-2.4365,-2.4365,0,-2.4852,-2.4844,-2.4808,-2.4769,-2.4739,-2.4707,-2.4675,-2.4656,-2.4631,-2.4602,-2.4559,-2.4531,-2.4477,-2.4434,-2.4392,-2.4369,-2.4362,-2.436,-2.4351,-2.4354,-2.4364,-2.4357,-2.4431,-2.4361,-2.4361,-2.4361,-2.4362,-2.4362,-2.481,-2.4782,-2.4748,-2.4709,-2.4684,-2.4655,-2.4626,-2.4604,-2.4568,-2.4523,-2.4514,-2.4469,-2.4434,-2.4376,-2.4353,-2.4317,-2.4321,-2.4309,-2.4306,-2.4302,-2.4301,-2.4372,-2.431,-2.431,-2.431,-2.431,-2.431,0,-2.4747,-2.4726,-2.469,-2.4647,-2.4617,-2.4617,-2.4583,-2.4557,-2.4517,-2.4487,-2.4453,-2.4404,-2.4364,-2.4335,-2.4293,-2.427,-2.4266,-2.426,-2.426,-2.4255,-2.43,-2.4311,-2.4264,-2.4264,-2.4264,-2.4264,-2.4264,-2.4264,-2.471,-2.4662,-2.465,-2.459,-2.457,-2.4526,-2.4507,-2.448,-2.4456,-2.4403,-2.437,-2.4352,-2.4322,-2.4279,-2.4243,-2.4235,-2.422,-2.4213,-2.4205,-2.4247,-2.4252,-2.4256,-2.4266,-2.4211,-2.4211,-2.4163,-2.4162,-2.4162]}]]